Torna al catalogo

CZ-6A DEB

AttivoPO
NORAD 54471·DEBRIS·🇨🇳 China

Lanciato Nov 11, 2022 da Taiyuan Satellite Launch Center

Loading…

Prossimi Passaggi (prossime 24 ore)

TLE

AggiornatoSource: Space-Track

Epoca: Sep 13, 2026, 03:35 UTC

1 54471U 22151GX  26256.14949502  .00006828  00000-0  10282-2 0  9996
2 54471  98.6065 326.2996 0069153   7.8058 352.4207 14.73146734203150

Traccia CZ-6A DEB in tempo reale con AllMySat

Download on the App Store